This demonstration page uses our WeatherBlox Daily Observations layout. Learn more.

Left ArrowRight Arrow

40.92945, -100.16068

Hourly Observations for October 10, 2016

Temp ( °F °C ) Dew Point ( °F °C ) Humidity (%) Winds ( mph kmh ) Pressure ( in mb ) Visibility ( mi km ) Precip ( " mm )
12:15 am 00:15 Clear 60 15.8 46 7.5 58 58 SSE 14 22 30.00 1016 10 16 N/A
12:35 am 00:35 Clear 60 15.8 46 7.6 58 58 SSE 13 20 30.00 1016 10 16 N/A
12:55 am 00:55 Clear 60 15.4 45 7.4 59 59 SSE 13 20 30.00 1016 10 16 N/A
1:15 am 01:15 Clear 59 15.2 45 7.4 60 60 S 13 20 30.00 1016 10 16 N/A
1:35 am 01:35 Clear 59 15 46 7.6 61 61 S 14 22 30.00 1016 10 16 N/A
1:55 am 01:55 Clear 59 15 46 8 63 63 S 13 20 30.00 1016 10 16 N/A
2:15 am 02:15 Clear 58 14.5 46 8 65 65 SSE 10 17 30.00 1016 10 16 N/A
2:35 am 02:35 Clear 58 14.2 47 8.1 67 67 SSE 8 13 30.00 1016 10 16 N/A
2:55 am 02:55 Clear 57 13.8 47 8.2 69 69 SSE 6 9 30.00 1016 10 16 N/A
3:15 am 03:15 Clear 56 13.5 47 8.4 71 71 SSE 8 13 30.00 1016 10 16 N/A
3:35 am 03:35 Clear 56 13.5 47 8.5 72 72 SE 7 11 30.00 1016 10 16 N/A
3:55 am 03:55 Clear 56 13.3 47 8.6 73 73 SE 6 9 30.03 1017 10 16 N/A
4:15 am 04:15 Clear 55 13 47 8.6 75 75 SE 7 11 30.03 1017 10 16 N/A
4:35 am 04:35 Mostly Cloudy 55 13 48 8.9 76 76 SE 8 13 30.03 1017 10 16 N/A
4:55 am 04:55 Partly Cloudy 55 12.8 48 9 78 78 SE 8 13 30.03 1017 10 16 N/A
5:15 am 05:15 Clear 55 12.5 48 9.1 80 80 SSE 8 13 30.03 1017 10 16 N/A
5:35 am 05:35 Clear 54 12.4 49 9.4 82 82 SSE 8 13 30.03 1017 10 16 N/A
5:55 am 05:55 Clear 54 12.2 49 9.6 84 84 S 9 15 30.03 1017 10 16 N/A
6:15 am 06:15 Clear 54 12.3 50 9.8 85 85 SSE 10 17 30.03 1017 10 16 N/A
6:35 am 06:35 Clear 55 12.6 50 10.1 85 85 SSE 7 11 30.00 1016 10 16 N/A
6:55 am 06:55 Clear 55 12.8 51 10.3 85 85 SSE 7 11 30.00 1016 10 16 N/A
7:15 am 07:15 Clear 55 13 51 10.5 85 85 SSE 8 13 30.00 1016 10 16 N/A
7:35 am 07:35 Partly Cloudy 56 13.4 52 11 86 86 SSE 6 9 29.97 1015 10 16 N/A
7:55 am 07:55 Cloudy 56 13.5 52 11 85 85 SE 6 9 29.97 1015 10 16 N/A
8:15 am 08:15 Cloudy 56 13.5 52 11 85 85 SSE 7 11 29.97 1015 10 16 N/A
8:35 am 08:35 Cloudy 56 13.3 51 10.8 85 85 SSE 9 15 29.97 1015 10 16 N/A
8:55 am 08:55 Mostly Cloudy 56 13.5 51 10.8 84 84 SSE 10 17 29.97 1015 10 16 N/A
9:15 am 09:15 Partly Cloudy 58 14.5 52 11.1 80 80 SSE 13 20 29.97 1015 10 16 N/A
9:35 am 09:35 Partly Cloudy 60 15.7 53 11.5 76 76 SSE 18 30 29.97 1015 10 16 N/A
9:55 am 09:55 Partly Cloudy 62 16.6 53 11.5 72 72 S 17 28 29.94 1014 10 16 N/A
10:15 am 10:15 Sunny 62 16.5 53 11.4 72 72 S 18 30 29.94 1014 10 16 N/A
10:35 am 10:35 Sunny 62 16.8 52 11.2 70 70 S 17 28 29.97 1015 10 16 N/A
10:55 am 10:55 Sunny 63 17.3 52 11.3 68 68 S 15 24 29.94 1014 10 16 N/A
11:15 am 11:15 Sunny 64 17.5 52 11.3 67 67 S 16 26 29.94 1014 10 16 N/A
11:35 am 11:35 Sunny 65 18.6 53 11.5 64 64 S 15 24 29.94 1014 10 16 N/A
11:55 am 11:55 Sunny 67 19.5 53 11.5 60 60 SSW 15 24 29.94 1014 10 16 N/A
12:15 pm 12:15 Sunny 69 20.3 53 11.7 58 58 SSW 14 22 29.91 1013 10 16 N/A
12:35 pm 12:35 Sunny 70 21 53 11.5 55 55 S 17 28 29.88 1012 10 16 N/A
12:55 pm 12:55 Sunny 71 21.4 53 11.9 55 55 SSW 14 22 29.88 1012 10 16 N/A
1:15 pm 13:15 Sunny 70 21.1 53 11.7 55 55 SSW 15 24 29.88 1012 10 16 N/A
1:35 pm 13:35 Sunny 72 22.1 54 12.1 53 53 SSW 14 22 29.88 1012 10 16 N/A
1:55 pm 13:55 Sunny 73 23 55 12.5 52 52 S 14 22 29.83 1010 10 16 N/A
2:15 pm 14:15 Sunny 74 23.2 55 12.5 51 51 S 17 28 29.83 1010 10 16 N/A
2:35 pm 14:35 Sunny 76 24.6 55 12.5 47 47 S 14 22 29.83 1010 10 16 N/A
2:55 pm 14:55 Sunny 76 24.6 54 12.2 46 46 S 15 24 29.80 1009 10 16 N/A
3:15 pm 15:15 Sunny 76 24.6 54 12.1 46 46 SSW 14 22 29.80 1009 10 16 N/A
3:35 pm 15:35 Sunny 76 24.6 54 12.3 46 46 SSE 15 24 29.80 1009 10 16 N/A
3:55 pm 15:55 Sunny 76 24.6 54 12.2 46 46 S 14 22 29.80 1009 10 16 N/A
4:15 pm 16:15 Sunny 76 24.6 54 12.1 46 46 S 15 24 29.80 1009 10 16 N/A
4:35 pm 16:35 Sunny 76 24.5 54 12.1 46 46 S 14 22 29.80 1009 10 16 N/A
4:55 pm 16:55 Sunny 76 24.2 54 12 47 47 S 15 24 29.80 1009 10 16 N/A
5:15 pm 17:15 Sunny 75 24 53 11.7 46 46 S 14 22 29.80 1009 10 16 N/A
5:35 pm 17:35 Sunny 75 23.8 53 11.7 47 47 S 15 24 29.80 1009 10 16 N/A
5:55 pm 17:55 Sunny 74 23.5 53 11.7 48 48 S 13 20 29.80 1009 10 16 N/A
6:15 pm 18:15 Sunny 73 23 53 11.6 49 49 S 14 22 29.80 1009 10 16 N/A
6:35 pm 18:35 Sunny 72 22.1 53 11.5 51 51 SSE 10 17 29.83 1010 10 16 N/A
6:55 pm 18:55 Sunny 70 21.1 53 11.6 55 55 SSE 9 15 29.83 1010 10 16 N/A
7:15 pm 19:15 Clear 68 20 53 11.6 59 59 SSE 9 15 29.83 1010 10 16 N/A
7:35 pm 19:35 Clear 66 18.8 53 11.5 63 63 SE 6 9 29.85 1011 10 16 N/A
7:55 pm 19:55 Clear 65 18.6 53 11.6 64 64 SE 6 9 29.85 1011 10 16 N/A
8:15 pm 20:15 Clear 65 18.2 53 11.5 65 65 SE 7 11 29.88 1012 10 16 N/A
8:35 pm 20:35 Clear 64 17.5 53 11.5 68 68 SE 7 11 29.88 1012 10 16 N/A
8:55 pm 20:55 Clear 63 17.2 52 11.3 68 68 ESE 10 17 29.88 1012 10 16 N/A
9:15 pm 21:15 Clear 64 17.6 53 11.4 67 67 SE 8 13 29.88 1012 10 16 N/A
9:35 pm 21:35 Clear 63 17.1 53 11.5 70 70 SE 8 13 29.88 1012 10 16 N/A
9:55 pm 21:55 Clear 62 16.4 53 11.6 73 73 SSE 8 13 29.88 1012 10 16 N/A
10:15 pm 22:15 Clear 61 16.3 53 11.6 74 74 SSE 10 17 29.88 1012 10 16 N/A
10:35 pm 22:35 Clear 61 16.1 53 11.6 75 75 SE 6 9 29.88 1012 10 16 N/A
10:55 pm 22:55 Clear 59 15.2 53 11.4 78 78 SE 5 7 29.91 1013 10 16 N/A
11:15 pm 23:15 Clear 58 14.5 52 11.1 80 80 ESE 5 7 29.91 1013 10 16 N/A
11:35 pm 23:35 Clear 59 15 53 11.4 79 79 ESE 6 9 29.88 1012 10 16 N/A
11:55 pm 23:55 Clear 58 14.2 52 11 81 81 SE 5 7 29.88 1012 10 16 N/A

Powered by AerisWeather